TimeEDT,TemperatureF,Dew PointF,Humidity,Sea Level PressureIn,VisibilityMPH,Wind Direction,Wind SpeedMPH,Gust SpeedMPH,PrecipitationIn,Events,Conditions,WindDirDegrees,DateUTC
12:01 AM,59.0,59.0,100,29.92,1.2,South,2.3,-,N/A,,Clear,180,2013-06-18 04:01:00
12:02 AM,59.0,59.0,100,29.92,1.2,South,3.5,-,N/A,,Clear,180,2013-06-18 04:02:00
12:05 AM,59.0,59.0,100,29.91,1.2,SSE,2.3,-,N/A,,Partly Cloudy,160,2013-06-18 04:05:00
12:07 AM,59.0,59.0,100,29.91,1.0,SSE,2.3,-,N/A,,Partly Cloudy,160,2013-06-18 04:07:00
12:09 AM,59.0,59.0,100,29.91,0.8,South,3.5,-,N/A,,Scattered Clouds,170,2013-06-18 04:09:00
12:10 AM,59.0,59.0,100,29.91,0.8,South,3.5,-,N/A,,Scattered Clouds,170,2013-06-18 04:10:00
12:11 AM,59.0,59.0,100,29.91,0.8,South,3.5,-,N/A,,Scattered Clouds,170,2013-06-18 04:11:00
12:12 AM,59.0,59.0,100,29.91,0.8,South,3.5,-,N/A,,Scattered Clouds,170,2013-06-18 04:12:00
12:17 AM,59.0,59.0,100,29.91,0.8,SE,2.3,-,N/A,,Scattered Clouds,140,2013-06-18 04:17:00
12:18 AM,59.0,59.0,100,29.91,1.0,SE,2.3,-,N/A,,Scattered Clouds,140,2013-06-18 04:18:00
12:19 AM,59.0,59.0,100,29.91,1.2,SE,2.3,-,N/A,,Scattered Clouds,130,2013-06-18 04:19:00
12:21 AM,59.0,59.0,100,29.91,1.5,ESE,1.2,-,N/A,,Scattered Clouds,120,2013-06-18 04:21:00
12:23 AM,59.0,59.0,100,29.91,1.8,SE,2.3,-,N/A,,Partly Cloudy,140,2013-06-18 04:23:00
12:25 AM,59.0,59.0,100,29.91,2.0,SE,2.3,-,N/A,,Partly Cloudy,140,2013-06-18 04:25:00
12:28 AM,59.0,59.0,100,29.91,2.5,SSE,3.5,-,N/A,,Partly Cloudy,160,2013-06-18 04:28:00
12:30 AM,59.0,59.0,100,29.91,3.0,SSE,4.6,-,N/A,,Partly Cloudy,150,2013-06-18 04:30:00
12:58 AM,59.7,59.4,99,29.93,10.0,SSE,2.3,-,N/A,,Clear,150,2013-06-18 04:58:00
1:09 AM,60.8,59.0,94,29.91,10.0,SSE,3.5,-,N/A,,Partly Cloudy,150,2013-06-18 05:09:00
1:41 AM,60.8,59.0,94,29.92,10.0,South,2.3,-,N/A,Rain,Light Rain,190,2013-06-18 05:41:00
1:45 AM,59.0,59.0,100,29.92,10.0,South,3.5,-,N/A,Rain,Light Rain,180,2013-06-18 05:45:00
1:58 AM,60.1,59.9,99,29.94,10.0,ESE,2.3,-,0.00,,Light Drizzle,120,2013-06-18 05:58:00
2:20 AM,60.8,60.8,100,29.91,10.0,Calm,Calm,-,N/A,,Mostly Cloudy,0,2013-06-18 06:20:00
2:58 AM,61.3,61.2,99,29.93,10.0,SSE,3.5,-,0.00,,Mostly Cloudy,150,2013-06-18 06:58:00
3:04 AM,60.8,60.8,100,29.90,10.0,East,2.3,-,N/A,,Light Drizzle,90,2013-06-18 07:04:00
3:13 AM,60.8,60.8,100,29.90,10.0,ENE,3.5,-,N/A,,Mostly Cloudy,60,2013-06-18 07:13:00
3:44 AM,59.0,59.0,100,29.89,2.5,NNE,3.5,-,N/A,,Scattered Clouds,30,2013-06-18 07:44:00
3:46 AM,59.0,59.0,100,29.89,2.0,NNE,3.5,-,N/A,,Scattered Clouds,30,2013-06-18 07:46:00
3:47 AM,59.0,59.0,100,29.89,1.8,NNE,3.5,-,N/A,,Partly Cloudy,30,2013-06-18 07:47:00
3:48 AM,59.0,59.0,100,29.88,1.5,NNE,3.5,-,N/A,,Partly Cloudy,30,2013-06-18 07:48:00
3:49 AM,59.0,59.0,100,29.88,1.2,NNE,3.5,-,N/A,,Partly Cloudy,30,2013-06-18 07:49:00
3:51 AM,59.0,59.0,100,29.88,1.0,NNE,4.6,-,N/A,,Partly Cloudy,20,2013-06-18 07:51:00
3:53 AM,59.0,59.0,100,29.88,1.0,NNE,4.6,-,N/A,,Partly Cloudy,20,2013-06-18 07:53:00
3:54 AM,59.0,59.0,100,29.89,1.0,NNE,4.6,-,N/A,,Partly Cloudy,20,2013-06-18 07:54:00
3:55 AM,59.0,59.0,100,29.89,0.8,NNE,4.6,-,N/A,,Partly Cloudy,20,2013-06-18 07:55:00
3:57 AM,59.0,57.2,94,29.88,0.5,NNE,3.5,-,N/A,Fog,Fog,20,2013-06-18 07:57:00
3:58 AM,59.0,57.2,94,29.91,0.5,NNE,3.5,-,0.00,Fog,Fog,20,2013-06-18 07:58:00
4:01 AM,57.2,57.2,100,29.88,0.5,North,4.6,-,N/A,Fog,Fog,10,2013-06-18 08:01:00
4:03 AM,57.2,57.2,100,29.89,0.5,North,4.6,-,N/A,Fog,Fog,10,2013-06-18 08:03:00
4:06 AM,57.2,57.2,100,29.89,0.5,North,3.5,-,N/A,Fog,Fog,10,2013-06-18 08:06:00
4:08 AM,57.2,57.2,100,29.89,0.5,NNE,2.3,-,N/A,Fog,Fog,20,2013-06-18 08:08:00
4:12 AM,57.2,57.2,100,29.89,0.8,NNE,1.2,-,N/A,,Clear,30,2013-06-18 08:12:00
4:17 AM,59.0,59.0,100,29.89,0.5,NE,2.3,-,N/A,Fog,Fog,50,2013-06-18 08:17:00
4:22 AM,59.0,59.0,100,29.89,0.5,ENE,1.2,-,N/A,Fog,Fog,60,2013-06-18 08:22:00
4:33 AM,57.2,57.2,100,29.88,0.5,ENE,2.3,-,N/A,Fog,Fog,60,2013-06-18 08:33:00
4:34 AM,57.2,57.2,100,29.88,0.5,ENE,2.3,-,N/A,Fog,Fog,60,2013-06-18 08:34:00
4:38 AM,57.2,57.2,100,29.88,0.5,Calm,Calm,-,N/A,Fog,Fog,0,2013-06-18 08:38:00
4:39 AM,59.0,57.2,94,29.88,0.2,Calm,Calm,-,N/A,Fog,Fog,0,2013-06-18 08:39:00
4:55 AM,57.2,57.2,100,29.89,0.2,WSW,1.2,-,N/A,Fog,Fog,240,2013-06-18 08:55:00
4:56 AM,57.2,57.2,100,29.89,0.2,Calm,Calm,-,N/A,Fog,Fog,0,2013-06-18 08:56:00
4:57 AM,57.2,57.2,100,29.89,0.2,Calm,Calm,-,N/A,Fog,Fog,0,2013-06-18 08:57:00
4:58 AM,57.2,57.2,100,29.91,0.2,Calm,Calm,-,0.01,Fog,Fog,0,2013-06-18 08:58:00
4:59 AM,57.2,57.2,100,29.89,0.2,Calm,Calm,-,N/A,Fog,Fog,0,2013-06-18 08:59:00
5:08 AM,57.2,57.2,100,29.89,0.2,Calm,Calm,-,N/A,Fog,Fog,0,2013-06-18 09:08:00
5:09 AM,57.2,57.2,100,29.89,0.2,West,1.2,-,N/A,Fog,Fog,260,2013-06-18 09:09:00
5:11 AM,57.2,57.2,100,29.89,0.2,Calm,Calm,-,N/A,Fog,Fog,0,2013-06-18 09:11:00
5:17 AM,57.2,57.2,100,29.89,0.2,Calm,Calm,-,N/A,Fog,Fog,0,2013-06-18 09:17:00
5:18 AM,57.2,57.2,100,29.89,0.2,Calm,Calm,-,N/A,Fog,Fog,0,2013-06-18 09:18:00
5:20 AM,57.2,57.2,100,29.89,0.2,NNW,2.3,-,N/A,Fog,Fog,340,2013-06-18 09:20:00
5:27 AM,57.2,57.2,100,29.89,0.2,North,2.3,-,N/A,Fog,Fog,10,2013-06-18 09:27:00
5:35 AM,57.2,55.4,94,29.90,0.2,NNW,1.2,-,N/A,Fog,Fog,340,2013-06-18 09:35:00
5:57 AM,57.2,57.2,100,29.90,0.2,ENE,2.3,-,N/A,Fog,Fog,60,2013-06-18 09:57:00
5:58 AM,57.2,57.2,100,29.92,0.2,ENE,2.3,-,N/A,Fog,Fog,60,2013-06-18 09:58:00
6:05 AM,57.2,57.2,100,29.90,0.2,NE,2.3,-,N/A,Fog,Fog,50,2013-06-18 10:05:00
6:09 AM,57.2,57.2,100,29.90,0.2,NE,2.3,-,N/A,Fog,Fog,40,2013-06-18 10:09:00
6:21 AM,57.2,57.2,100,29.90,0.2,Calm,Calm,-,N/A,Fog,Fog,0,2013-06-18 10:21:00
6:29 AM,59.0,57.2,94,29.91,0.2,Calm,Calm,-,N/A,Fog,Fog,0,2013-06-18 10:29:00
6:47 AM,59.0,59.0,100,29.92,0.2,North,2.3,-,N/A,Fog,Fog,360,2013-06-18 10:47:00
6:49 AM,59.0,59.0,100,29.92,0.2,North,2.3,-,N/A,Fog,Fog,360,2013-06-18 10:49:00
6:58 AM,59.0,58.6,99,29.94,0.2,North,2.3,-,N/A,Fog,Fog,10,2013-06-18 10:58:00
7:02 AM,59.0,59.0,100,29.92,0.2,North,2.3,-,N/A,Fog,Fog,10,2013-06-18 11:02:00
7:04 AM,59.0,59.0,100,29.92,0.2,North,2.3,-,N/A,Fog,Fog,10,2013-06-18 11:04:00
7:06 AM,59.0,59.0,100,29.92,0.2,North,3.5,-,N/A,Fog,Fog,360,2013-06-18 11:06:00
7:07 AM,59.0,59.0,100,29.92,0.2,North,3.5,-,N/A,Fog,Fog,10,2013-06-18 11:07:00
7:08 AM,59.0,59.0,100,29.92,0.5,North,3.5,-,N/A,Fog,Fog,10,2013-06-18 11:08:00
7:09 AM,59.0,59.0,100,29.92,0.5,North,3.5,-,N/A,Fog,Fog,360,2013-06-18 11:09:00
7:10 AM,59.0,59.0,100,29.92,0.5,North,3.5,-,N/A,Fog,Fog,360,2013-06-18 11:10:00
7:11 AM,59.0,59.0,100,29.92,0.8,North,2.3,-,N/A,,Mist,350,2013-06-18 11:11:00
7:12 AM,59.0,59.0,100,29.92,1.0,North,2.3,-,N/A,,Mist,350,2013-06-18 11:12:00
7:13 AM,59.0,59.0,100,29.92,1.2,North,3.5,-,N/A,,Overcast,360,2013-06-18 11:13:00
7:14 AM,59.0,59.0,100,29.92,1.8,North,3.5,-,N/A,,Overcast,360,2013-06-18 11:14:00
7:15 AM,59.0,59.0,100,29.92,2.0,North,2.3,-,N/A,,Overcast,360,2013-06-18 11:15:00
7:16 AM,59.0,59.0,100,29.92,2.5,North,3.5,-,N/A,,Overcast,360,2013-06-18 11:16:00
7:17 AM,59.0,59.0,100,29.92,2.0,North,3.5,-,N/A,,Overcast,360,2013-06-18 11:17:00
7:19 AM,59.0,59.0,100,29.92,1.8,NNW,3.5,-,N/A,,Overcast,340,2013-06-18 11:19:00
7:24 AM,59.0,59.0,100,29.93,1.5,Variable,2.3,-,N/A,,Overcast,0,2013-06-18 11:24:00
7:26 AM,59.0,59.0,100,29.93,1.8,Calm,Calm,-,N/A,,Overcast,0,2013-06-18 11:26:00
7:27 AM,59.0,59.0,100,29.93,2.0,North,1.2,-,N/A,,Overcast,360,2013-06-18 11:27:00
7:28 AM,59.0,59.0,100,29.93,2.5,North,2.3,-,N/A,,Overcast,10,2013-06-18 11:28:00
7:30 AM,59.0,59.0,100,29.93,3.0,NNE,2.3,-,N/A,,Overcast,20,2013-06-18 11:30:00
7:33 AM,59.0,59.0,100,29.93,2.5,NNE,2.3,-,N/A,,Overcast,30,2013-06-18 11:33:00
7:34 AM,59.0,59.0,100,29.93,2.0,NNE,1.2,-,N/A,,Overcast,20,2013-06-18 11:34:00
7:35 AM,59.0,59.0,100,29.92,0.8,North,1.2,-,N/A,,Overcast,10,2013-06-18 11:35:00
7:39 AM,60.8,59.0,94,29.92,0.5,Calm,Calm,-,N/A,Fog,Fog,0,2013-06-18 11:39:00
7:55 AM,59.4,58.6,97,29.95,0.5,Calm,Calm,-,N/A,Fog,Fog,0,2013-06-18 11:55:00
8:27 AM,60.8,60.8,100,29.93,1.2,Calm,Calm,-,N/A,,Overcast,0,2013-06-18 12:27:00
8:45 AM,62.6,62.6,100,29.94,1.5,Calm,Calm,-,N/A,,Overcast,0,2013-06-18 12:45:00
8:58 AM,62.6,62.6,100,29.96,3.0,Calm,Calm,-,N/A,,Overcast,0,2013-06-18 12:58:00
9:17 AM,62.6,62.6,100,29.93,6.0,North,6.9,-,N/A,,Overcast,360,2013-06-18 13:17:00
9:38 AM,62.6,62.6,100,29.94,10.0,North,5.8,-,N/A,,Overcast,10,2013-06-18 13:38:00
9:58 AM,64.4,64.4,100,29.95,10.0,NNE,3.5,-,N/A,,Overcast,30,2013-06-18 13:58:00
10:12 AM,64.4,64.4,100,29.93,10.0,Variable,3.5,-,N/A,,Mostly Cloudy,0,2013-06-18 14:12:00
10:42 AM,66.2,66.2,100,29.93,10.0,North,4.6,-,N/A,Rain,Light Rain,360,2013-06-18 14:42:00
10:47 AM,66.2,66.2,100,29.92,10.0,NE,3.5,-,N/A,,Mostly Cloudy,40,2013-06-18 14:47:00
10:54 AM,66.2,66.2,100,29.92,10.0,Variable,2.3,-,N/A,,Light Drizzle,0,2013-06-18 14:54:00
10:58 AM,66.0,66.0,100,29.94,10.0,North,1.2,-,0.00,,Light Drizzle,350,2013-06-18 14:58:00
11:04 AM,66.2,66.2,100,29.92,10.0,Variable,2.3,-,N/A,,Mostly Cloudy,0,2013-06-18 15:04:00
11:05 AM,66.2,66.2,100,29.92,10.0,Variable,2.3,-,N/A,,Light Drizzle,0,2013-06-18 15:05:00
11:16 AM,68.0,68.0,100,29.92,10.0,North,4.6,-,N/A,,Mostly Cloudy,10,2013-06-18 15:16:00
11:23 AM,68.0,68.0,100,29.92,10.0,NE,3.5,-,N/A,,Light Drizzle,50,2013-06-18 15:23:00
11:33 AM,68.0,68.0,100,29.91,10.0,Variable,1.2,-,N/A,,Mostly Cloudy,0,2013-06-18 15:33:00
11:43 AM,68.0,68.0,100,29.91,10.0,Variable,1.2,-,N/A,,Light Drizzle,0,2013-06-18 15:43:00
11:58 AM,68.9,68.9,100,29.92,10.0,Variable,1.2,-,0.00,,Light Drizzle,0,2013-06-18 15:58:00
11:59 AM,69.8,69.8,100,29.90,10.0,NNW,2.3,-,N/A,,Mostly Cloudy,340,2013-06-18 15:59:00
12:58 PM,75.7,65.8,71,29.91,10.0,NNW,8.1,-,0.00,,Mostly Cloudy,340,2013-06-18 16:58:00
1:58 PM,69.3,63.5,82,29.90,10.0,NNE,13.8,23.0,N/A,,Mostly Cloudy,20,2013-06-18 17:58:00
2:06 PM,68.0,62.6,83,29.88,10.0,NNE,12.7,23.0,N/A,Rain-Thunderstorm,Light Thunderstorms and Rain,20,2013-06-18 18:06:00
2:58 PM,64.4,64.0,99,29.89,3.0,NNE,11.5,-,0.06,Rain-Thunderstorm,Light Thunderstorms and Rain,20,2013-06-18 18:58:00
3:08 PM,64.4,64.4,100,29.89,6.0,NNE,6.9,-,N/A,Rain-Thunderstorm,Light Rain Showers,20,2013-06-18 19:08:00
3:41 PM,66.2,66.2,100,29.89,6.0,NNE,11.5,-,N/A,,Overcast,20,2013-06-18 19:41:00
3:53 PM,66.2,66.2,100,29.89,7.0,NNE,9.2,-,N/A,,Overcast,20,2013-06-18 19:53:00
3:58 PM,66.0,65.5,98,29.91,7.0,North,8.1,-,0.00,,Overcast,10,2013-06-18 19:58:00
4:11 PM,66.2,66.2,100,29.90,10.0,NNE,6.9,-,N/A,,Overcast,20,2013-06-18 20:11:00
4:23 PM,66.2,66.2,100,29.90,10.0,NNE,6.9,-,N/A,,Mostly Cloudy,30,2013-06-18 20:23:00
4:47 PM,66.2,66.2,100,29.90,10.0,NNE,8.1,-,N/A,,Overcast,30,2013-06-18 20:47:00
4:58 PM,66.2,65.3,97,29.92,10.0,NNE,9.2,-,N/A,,Overcast,30,2013-06-18 20:58:00
5:58 PM,64.0,61.9,93,29.93,10.0,NE,5.8,-,N/A,,Overcast,40,2013-06-18 21:58:00
6:58 PM,63.3,60.8,91,29.93,10.0,NNE,6.9,-,N/A,,Overcast,30,2013-06-18 22:58:00
7:22 PM,62.6,60.8,94,29.92,10.0,NW,5.8,-,N/A,Rain,Light Rain,320,2013-06-18 23:22:00
7:58 PM,62.2,61.7,98,29.93,8.0,NE,8.1,-,0.00,Rain,Light Rain,40,2013-06-18 23:58:00
8:58 PM,60.4,59.9,98,29.94,10.0,North,4.6,-,0.01,,Overcast,10,2013-06-19 00:58:00
9:58 PM,60.3,59.7,98,29.96,9.0,North,2.3,-,0.00,Rain,Light Rain,350,2013-06-19 01:58:00
10:58 PM,59.0,58.6,99,29.95,4.0,NE,5.8,-,0.11,Rain,Rain,50,2013-06-19 02:58:00
11:00 PM,59.0,59.0,100,29.93,4.0,NNE,5.8,-,N/A,Rain,Light Rain,30,2013-06-19 03:00:00
11:11 PM,57.2,57.2,100,29.94,7.0,NE,6.9,-,N/A,Rain,Light Rain,40,2013-06-19 03:11:00
11:16 PM,57.2,55.4,94,29.94,8.0,NE,5.8,-,N/A,Rain,Light Rain,40,2013-06-19 03:16:00
11:58 PM,57.2,56.7,98,29.96,9.0,NE,3.5,-,0.08,Rain,Light Rain,50,2013-06-19 03:58:00